TITAN 3C TRANSTAGE DEB, 26048

Orbit data source: Space-Track

TITAN 3C TRANSTAGE DEB, 26048 is space debris in HEO originally from a launch on Tue, 21 Dec 1965 UTC launched from the Air Force Eastern Test Range (AFETR). Debris objects in space refer to the collection of defunct objects orbiting the Earth. Examples of debris include non-operational satellites, rocket bodies, and fragments generated from explosions, collisions, or faulty payload assembly.

Loading next visibility...
Identifier
26048, 1965-108AG
Orbit
HEO
Last TLE update
1 day ago
Origin
Manufacturer
Unknown
Mission
Spacecraft
Bus & Motor
Unknown
Mass
Unknown
Launch date (UTC)
1965-12-21 (60 years ago)
Launch vehicle
Unknown
Launch site
Air Force Eastern Test Range (AFETR)
Object type
Payload
Rocket body
Debris
Shape & HBR
Unknown
Radar Cross Section
Medium (>0.1 m² and <1 m²)

Expand to show TLE details & history

TLE from 1 day ago
0 TITAN 3C TRANSTAGE DEB
1 26048U 65108AG  25187.56118557  .00005040  00000-0  20750-2 0  9996
2 26048  26.5101 302.7634 6268368 161.3843 239.9357  3.61759847320853
Epoch: 2025-07-06T13:28Z
TLE epoch observation values (Epoch: 2025-07-06T13:28:06.433Z)
Latitude
0.00002°
Longitude
175.94168°
Altitude
20,421.43 km
Speed
2.741 km/s
True Right ascension
20h 11m 00s
True Declination
0° 00' 00"
Sunlit
Object was in daylight at epoch
Visualization orbit readout
Latitude
-17.27963°
Longitude
136.62835°
Altitude
18,986.649 km
Speed
3.032 km/s
Apparent Right ascension
17h 59m 13s
Apparent Declination
-22° 22' 10"
Sunlit
Object is in daylight
Visualization observer readout
Local Sidereal Time
08:12:12
Azimuth
68.047° E
Elevation
-56.864°
Doppler factor
1
Orbital elements
Apogee altitude
22,788.572 km
Perigee altitude
312.112 km
Semi-major axis
17,928.479 km
Eccentricity
0.62684
Inclination
26.5101°
RAAN
302.7634°
Arg. of periapsis
161.3843°
True anomaly
Unknown
Mean anomaly
239.9357°
Eccentric anomaly
Unknown
Mean motion
0.90412 °/min
Orbital period
398.18 mins
BSTAR
0.002075
Loading maneuver chart data...
Loading SW <> Apogee altitude chart data...

TITAN 3C TRANSTAGE DEB Visibility forecast

Observer location: undefined°, undefined°

Span
Click to sort rows by Start time (UTC) header in descending order
Start Az.
Max El. time (UTC)
Max El. Az.
Max El.
End time (UTC)
End Az.
206 mins2025-07-08 03:14:30.516Z134.461° SE2025-07-08 05:43:30.516Z119.145° SE21.333°2025-07-08 06:40:30.516Z94.713° ESE
143 mins2025-07-08 11:32:30.516Z245.999° WSW2025-07-08 13:46:30.516Z192.84° SSW38.635°2025-07-08 13:55:30.516Z119.758° SE
|